Location: West Chester
(39.9610°N, 75.6060°W)
Time: 20:12:44
(UTC-04:00)

ARIANE 6 FM1 Upper Stage - Pass Details

Date: 21 September 2024
Orbit: 563 x 594 km, 62.0° (Epoch: 11 October)

Event Time Altitude Azimuth Distance (km) Brightness Sun altitude
Exits shadow 03:27:09 14° 39° (NE) 1,664 5.7 -36.8°
Drops below altitude 10° 03:29:21 10° 70° (ENE) 1,929 6.1 -36.5°
Sets 03:32:36 0° 95° (E) 2,837 6.8 -36.0°
